owner,sensor,date,latitude,longitude,air_temperature,qcFlag 
WAVCIS,ioos:station:WAVCIS:CSI06:1,2008-11-01T00:00:00Z,28.8667,-90.4833,19.85,11111222 
WAVCIS,ioos:station:WAVCIS:CSI06:1,2008-11-01T02:00:00Z,28.8667,-90.4833,19.3,11111222 
WAVCIS,ioos:station:WAVCIS:CSI06:1,2008-11-01T03:00:00Z,28.8667,-90.4833,19.49,11111222 
WAVCIS,ioos:station:WAVCIS:CSI06:1,2008-11-01T04:00:00Z,28.8667,-90.4833,19.52,11111222 
WAVCIS,ioos:station:WAVCIS:CSI06:1,2008-11-01T05:00:00Z,28.8667,-90.4833,19.84,11111222 
WAVCIS,ioos:station:WAVCIS:CSI06:1,2008-11-01T06:00:00Z,28.8667,-90.4833,19.85,11111222 
WAVCIS,ioos:station:WAVCIS:CSI06:1,2008-11-01T07:00:00Z,28.8667,-90.4833,19.93,11111222 
WAVCIS,ioos:station:WAVCIS:CSI06:1,2008-11-01T08:00:00Z,28.8667,-90.4833,19.87,11111222 
WAVCIS,ioos:station:WAVCIS:CSI06:1,2008-11-01T09:00:00Z,28.8667,-90.4833,19.76,11111222 
WAVCIS,ioos:station:WAVCIS:CSI06:1,2008-11-01T10:00:00Z,28.8667,-90.4833,19.16,11111222 
WAVCIS,ioos:station:WAVCIS:CSI06:1,2008-11-01T11:00:00Z,28.8667,-90.4833,19.24,11111222 
WAVCIS,ioos:station:WAVCIS:CSI06:1,2008-11-01T12:00:00Z,28.8667,-90.4833,18.78,11111222 
WAVCIS,ioos:station:WAVCIS:CSI06:1,2008-11-01T13:00:00Z,28.8667,-90.4833,18.81,11111222 
WAVCIS,ioos:station:WAVCIS:CSI06:1,2008-11-01T15:00:00Z,28.8667,-90.4833,19.3,11111222 
WAVCIS,ioos:station:WAVCIS:CSI06:1,2008-11-01T16:00:00Z,28.8667,-90.4833,19.45,11111222 
WAVCIS,ioos:station:WAVCIS:CSI06:1,2008-11-01T17:00:00Z,28.8667,-90.4833,19.6,11111222 
WAVCIS,ioos:station:WAVCIS:CSI06:1,2008-11-01T19:00:00Z,28.8667,-90.4833,19.84,11111222 
WAVCIS,ioos:station:WAVCIS:CSI06:1,2008-11-01T20:00:00Z,28.8667,-90.4833,19.93,11111222 
WAVCIS,ioos:station:WAVCIS:CSI06:1,2008-11-01T21:00:00Z,28.8667,-90.4833,20.22,11111222 
WAVCIS,ioos:station:WAVCIS:CSI06:1,2008-11-01T22:00:00Z,28.8667,-90.4833,20.62,11111222 
WAVCIS,ioos:station:WAVCIS:CSI06:1,2008-11-01T23:00:00Z,28.8667,-90.4833,19.98,11111222 
WAVCIS,ioos:station:WAVCIS:CSI06:1,2008-11-02T00:00:00Z,28.8667,-90.4833,19.6,11111222 
WAVCIS,ioos:station:WAVCIS:CSI06:1,2008-11-02T01:00:00Z,28.8667,-90.4833,19.45,11111222 
WAVCIS,ioos:station:WAVCIS:CSI06:1,2008-11-02T02:00:00Z,28.8667,-90.4833,19.38,11111222 
WAVCIS,ioos:station:WAVCIS:CSI06:1,2008-11-02T03:00:00Z,28.8667,-90.4833,19.33,11111222 
WAVCIS,ioos:station:WAVCIS:CSI06:1,2008-11-02T04:00:00Z,28.8667,-90.4833,19.47,11111222 
WAVCIS,ioos:station:WAVCIS:CSI06:1,2008-11-02T05:00:00Z,28.8667,-90.4833,19.66,11111222 
WAVCIS,ioos:station:WAVCIS:CSI06:1,2008-11-02T06:00:00Z,28.8667,-90.4833,19.85,11111222 
WAVCIS,ioos:station:WAVCIS:CSI06:1,2008-11-02T07:00:00Z,28.8667,-90.4833,19.13,11111222 
WAVCIS,ioos:station:WAVCIS:CSI06:1,2008-11-02T08:00:00Z,28.8667,-90.4833,18.99,11111222 
WAVCIS,ioos:station:WAVCIS:CSI06:1,2008-11-02T09:00:00Z,28.8667,-90.4833,18.91,11111222 
WAVCIS,ioos:station:WAVCIS:CSI06:1,2008-11-02T10:00:00Z,28.8667,-90.4833,18.62,11111222 
WAVCIS,ioos:station:WAVCIS:CSI06:1,2008-11-02T11:00:00Z,28.8667,-90.4833,18.91,11111222 
WAVCIS,ioos:station:WAVCIS:CSI06:1,2008-11-02T12:00:00Z,28.8667,-90.4833,18.88,11111222 
WAVCIS,ioos:station:WAVCIS:CSI06:1,2008-11-02T13:00:00Z,28.8667,-90.4833,18.93,11111222 
WAVCIS,ioos:station:WAVCIS:CSI06:1,2008-11-02T14:00:00Z,28.8667,-90.4833,18.36,11111222 
WAVCIS,ioos:station:WAVCIS:CSI06:1,2008-11-02T15:00:00Z,28.8667,-90.4833,18.3,11111222 
WAVCIS,ioos:station:WAVCIS:CSI06:1,2008-11-02T16:00:00Z,28.8667,-90.4833,18.6,11111222 
WAVCIS,ioos:station:WAVCIS:CSI06:1,2008-11-02T17:00:00Z,28.8667,-90.4833,19.31,11111222 
WAVCIS,ioos:station:WAVCIS:CSI06:1,2008-11-02T18:00:00Z,28.8667,-90.4833,19.0,11111222 
WAVCIS,ioos:station:WAVCIS:CSI06:1,2008-11-02T19:00:00Z,28.8667,-90.4833,19.92,11111222 
WAVCIS,ioos:station:WAVCIS:CSI06:1,2008-11-02T20:00:00Z,28.8667,-90.4833,19.83,11111222 
WAVCIS,ioos:station:WAVCIS:CSI06:1,2008-11-02T21:00:00Z,28.8667,-90.4833,19.62,11111222 
WAVCIS,ioos:station:WAVCIS:CSI06:1,2008-11-02T22:00:00Z,28.8667,-90.4833,19.75,11111222 
WAVCIS,ioos:station:WAVCIS:CSI06:1,2008-11-02T23:00:00Z,28.8667,-90.4833,19.55,11111222 
WAVCIS,ioos:station:WAVCIS:CSI06:1,2008-11-03T00:00:00Z,28.8667,-90.4833,19.61,11111222 
WAVCIS,ioos:station:WAVCIS:CSI06:1,2008-11-03T01:00:00Z,28.8667,-90.4833,19.63,11111222 
WAVCIS,ioos:station:WAVCIS:CSI06:1,2008-11-03T02:00:00Z,28.8667,-90.4833,19.58,11111222 
WAVCIS,ioos:station:WAVCIS:CSI06:1,2008-11-03T03:00:00Z,28.8667,-90.4833,19.75,11111222 
WAVCIS,ioos:station:WAVCIS:CSI06:1,2008-11-03T04:00:00Z,28.8667,-90.4833,19.57,11111222 
WAVCIS,ioos:station:WAVCIS:CSI06:1,2008-11-03T05:00:00Z,28.8667,-90.4833,19.71,11111222 
WAVCIS,ioos:station:WAVCIS:CSI06:1,2008-11-03T06:00:00Z,28.8667,-90.4833,19.82,11111222 
WAVCIS,ioos:station:WAVCIS:CSI06:1,2008-11-03T07:00:00Z,28.8667,-90.4833,19.9,11111222 
WAVCIS,ioos:station:WAVCIS:CSI06:1,2008-11-03T08:00:00Z,28.8667,-90.4833,19.46,11111222 
WAVCIS,ioos:station:WAVCIS:CSI06:1,2008-11-03T09:00:00Z,28.8667,-90.4833,19.7,11111222 
WAVCIS,ioos:station:WAVCIS:CSI06:1,2008-11-03T10:00:00Z,28.8667,-90.4833,18.88,11111222 
WAVCIS,ioos:station:WAVCIS:CSI06:1,2008-11-03T11:00:00Z,28.8667,-90.4833,19.08,11111222 
WAVCIS,ioos:station:WAVCIS:CSI06:1,2008-11-03T12:00:00Z,28.8667,-90.4833,18.84,11111222 
WAVCIS,ioos:station:WAVCIS:CSI06:1,2008-11-03T13:00:00Z,28.8667,-90.4833,18.63,11111222 
WAVCIS,ioos:station:WAVCIS:CSI06:1,2008-11-03T14:00:00Z,28.8667,-90.4833,18.86,11111222 
WAVCIS,ioos:station:WAVCIS:CSI06:1,2008-11-03T15:00:00Z,28.8667,-90.4833,19.15,11111222 
WAVCIS,ioos:station:WAVCIS:CSI06:1,2008-11-03T16:00:00Z,28.8667,-90.4833,19.68,11111222 
WAVCIS,ioos:station:WAVCIS:CSI06:1,2008-11-03T17:00:00Z,28.8667,-90.4833,20.11,11111222 
WAVCIS,ioos:station:WAVCIS:CSI06:1,2008-11-03T18:00:00Z,28.8667,-90.4833,20.41,11111222 
WAVCIS,ioos:station:WAVCIS:CSI06:1,2008-11-03T19:00:00Z,28.8667,-90.4833,20.65,11111222 
WAVCIS,ioos:station:WAVCIS:CSI06:1,2008-11-03T20:00:00Z,28.8667,-90.4833,20.8,11111222 
WAVCIS,ioos:station:WAVCIS:CSI06:1,2008-11-03T21:00:00Z,28.8667,-90.4833,21.19,11111222 
WAVCIS,ioos:station:WAVCIS:CSI06:1,2008-11-03T22:00:00Z,28.8667,-90.4833,20.94,11111222 
WAVCIS,ioos:station:WAVCIS:CSI06:1,2008-11-03T23:00:00Z,28.8667,-90.4833,20.91,11111222 
WAVCIS,ioos:station:WAVCIS:CSI06:1,2008-11-04T00:00:00Z,28.8667,-90.4833,20.66,11111222 
WAVCIS,ioos:station:WAVCIS:CSI06:1,2008-11-04T01:00:00Z,28.8667,-90.4833,20.24,11111222 
WAVCIS,ioos:station:WAVCIS:CSI06:1,2008-11-04T02:00:00Z,28.8667,-90.4833,20.28,11111222 
WAVCIS,ioos:station:WAVCIS:CSI06:1,2008-11-04T03:00:00Z,28.8667,-90.4833,20.26,11111222 
WAVCIS,ioos:station:WAVCIS:CSI06:1,2008-11-04T04:00:00Z,28.8667,-90.4833,20.18,11111222 
WAVCIS,ioos:station:WAVCIS:CSI06:1,2008-11-04T05:00:00Z,28.8667,-90.4833,20.14,11111222 
WAVCIS,ioos:station:WAVCIS:CSI06:1,2008-11-04T06:00:00Z,28.8667,-90.4833,20.58,11111222 
WAVCIS,ioos:station:WAVCIS:CSI06:1,2008-11-04T07:00:00Z,28.8667,-90.4833,20.72,11111222 
WAVCIS,ioos:station:WAVCIS:CSI06:1,2008-11-04T08:00:00Z,28.8667,-90.4833,20.75,11111222 
WAVCIS,ioos:station:WAVCIS:CSI06:1,2008-11-04T09:00:00Z,28.8667,-90.4833,20.69,11111222 
WAVCIS,ioos:station:WAVCIS:CSI06:1,2008-11-04T10:00:00Z,28.8667,-90.4833,20.29,11111222 
WAVCIS,ioos:station:WAVCIS:CSI06:1,2008-11-04T11:00:00Z,28.8667,-90.4833,20.19,11111222 
WAVCIS,ioos:station:WAVCIS:CSI06:1,2008-11-04T12:00:00Z,28.8667,-90.4833,20.24,11111222 
WAVCIS,ioos:station:WAVCIS:CSI06:1,2008-11-04T13:00:00Z,28.8667,-90.4833,20.19,11111222 
WAVCIS,ioos:station:WAVCIS:CSI06:1,2008-11-04T14:00:00Z,28.8667,-90.4833,19.82,11111222 
WAVCIS,ioos:station:WAVCIS:CSI06:1,2008-11-04T15:00:00Z,28.8667,-90.4833,19.96,11111222 
WAVCIS,ioos:station:WAVCIS:CSI06:1,2008-11-04T16:00:00Z,28.8667,-90.4833,20.45,11111222 
WAVCIS,ioos:station:WAVCIS:CSI06:1,2008-11-04T17:00:00Z,28.8667,-90.4833,20.61,11111222 
WAVCIS,ioos:station:WAVCIS:CSI06:1,2008-11-04T18:00:00Z,28.8667,-90.4833,20.92,11111222 
WAVCIS,ioos:station:WAVCIS:CSI06:1,2008-11-04T19:00:00Z,28.8667,-90.4833,21.04,11111222 
WAVCIS,ioos:station:WAVCIS:CSI06:1,2008-11-04T20:00:00Z,28.8667,-90.4833,21.31,11111222 
WAVCIS,ioos:station:WAVCIS:CSI06:1,2008-11-04T21:00:00Z,28.8667,-90.4833,21.05,11111222 
WAVCIS,ioos:station:WAVCIS:CSI06:1,2008-11-04T22:00:00Z,28.8667,-90.4833,20.99,11111222 
WAVCIS,ioos:station:WAVCIS:CSI06:1,2008-11-04T23:00:00Z,28.8667,-90.4833,20.72,11111222 
WAVCIS,ioos:station:WAVCIS:CSI06:1,2008-11-05T00:00:00Z,28.8667,-90.4833,20.49,11111222 
WAVCIS,ioos:station:WAVCIS:CSI06:1,2008-11-05T01:00:00Z,28.8667,-90.4833,20.39,11111222 
WAVCIS,ioos:station:WAVCIS:CSI06:1,2008-11-05T02:00:00Z,28.8667,-90.4833,20.31,11111222 
WAVCIS,ioos:station:WAVCIS:CSI06:1,2008-11-05T03:00:00Z,28.8667,-90.4833,20.23,11111222 
WAVCIS,ioos:station:WAVCIS:CSI06:1,2008-11-05T04:00:00Z,28.8667,-90.4833,20.19,11111222 
WAVCIS,ioos:station:WAVCIS:CSI06:1,2008-11-05T05:00:00Z,28.8667,-90.4833,20.29,11111222 
WAVCIS,ioos:station:WAVCIS:CSI06:1,2008-11-05T06:00:00Z,28.8667,-90.4833,20.53,11111222 
WAVCIS,ioos:station:WAVCIS:CSI06:1,2008-11-05T07:00:00Z,28.8667,-90.4833,20.47,11111222 
WAVCIS,ioos:station:WAVCIS:CSI06:1,2008-11-05T08:00:00Z,28.8667,-90.4833,20.31,11111222 
WAVCIS,ioos:station:WAVCIS:CSI06:1,2008-11-05T09:00:00Z,28.8667,-90.4833,19.97,11111222 
WAVCIS,ioos:station:WAVCIS:CSI06:1,2008-11-05T10:00:00Z,28.8667,-90.4833,19.94,11111222 
WAVCIS,ioos:station:WAVCIS:CSI06:1,2008-11-05T11:00:00Z,28.8667,-90.4833,20.28,11111222 
WAVCIS,ioos:station:WAVCIS:CSI06:1,2008-11-05T12:00:00Z,28.8667,-90.4833,20.39,11111222 
WAVCIS,ioos:station:WAVCIS:CSI06:1,2008-11-05T13:00:00Z,28.8667,-90.4833,20.68,11111222 
WAVCIS,ioos:station:WAVCIS:CSI06:1,2008-11-05T14:00:00Z,28.8667,-90.4833,20.9,11111222 
WAVCIS,ioos:station:WAVCIS:CSI06:1,2008-11-05T15:00:00Z,28.8667,-90.4833,21.22,11111222 
WAVCIS,ioos:station:WAVCIS:CSI06:1,2008-11-05T16:00:00Z,28.8667,-90.4833,21.44,11111222 
WAVCIS,ioos:station:WAVCIS:CSI06:1,2008-11-05T17:00:00Z,28.8667,-90.4833,21.65,11111222 
WAVCIS,ioos:station:WAVCIS:CSI06:1,2008-11-05T18:00:00Z,28.8667,-90.4833,21.78,11111222 
WAVCIS,ioos:station:WAVCIS:CSI06:1,2008-11-05T19:00:00Z,28.8667,-90.4833,21.88,11111222 
WAVCIS,ioos:station:WAVCIS:CSI06:1,2008-11-05T20:00:00Z,28.8667,-90.4833,21.75,11111222 
WAVCIS,ioos:station:WAVCIS:CSI06:1,2008-11-05T21:00:00Z,28.8667,-90.4833,21.69,11111222 
WAVCIS,ioos:station:WAVCIS:CSI06:1,2008-11-05T22:00:00Z,28.8667,-90.4833,21.86,11111222 
WAVCIS,ioos:station:WAVCIS:CSI06:1,2008-11-05T23:00:00Z,28.8667,-90.4833,21.83,11111222 
WAVCIS,ioos:station:WAVCIS:CSI06:1,2008-11-06T00:00:00Z,28.8667,-90.4833,21.32,11111222 
WAVCIS,ioos:station:WAVCIS:CSI06:1,2008-11-06T01:00:00Z,28.8667,-90.4833,21.49,11111222 
WAVCIS,ioos:station:WAVCIS:CSI06:1,2008-11-06T02:00:00Z,28.8667,-90.4833,21.55,11111222 
WAVCIS,ioos:station:WAVCIS:CSI06:1,2008-11-06T03:00:00Z,28.8667,-90.4833,21.45,11111222 
WAVCIS,ioos:station:WAVCIS:CSI06:1,2008-11-06T05:00:00Z,28.8667,-90.4833,21.51,11111222 
WAVCIS,ioos:station:WAVCIS:CSI06:1,2008-11-06T06:00:00Z,28.8667,-90.4833,21.63,11111222 
WAVCIS,ioos:station:WAVCIS:CSI06:1,2008-11-06T08:00:00Z,28.8667,-90.4833,21.7,11111222 
WAVCIS,ioos:station:WAVCIS:CSI06:1,2008-11-06T09:00:00Z,28.8667,-90.4833,21.67,11111222 
WAVCIS,ioos:station:WAVCIS:CSI06:1,2008-11-06T10:00:00Z,28.8667,-90.4833,21.71,11111222 
WAVCIS,ioos:station:WAVCIS:CSI06:1,2008-11-06T11:00:00Z,28.8667,-90.4833,21.95,11111222 
WAVCIS,ioos:station:WAVCIS:CSI06:1,2008-11-06T12:00:00Z,28.8667,-90.4833,22.22,11111222 
WAVCIS,ioos:station:WAVCIS:CSI06:1,2008-11-06T13:00:00Z,28.8667,-90.4833,22.41,11111222 
WAVCIS,ioos:station:WAVCIS:CSI06:1,2008-11-06T14:00:00Z,28.8667,-90.4833,22.64,11111222 
WAVCIS,ioos:station:WAVCIS:CSI06:1,2008-11-06T15:00:00Z,28.8667,-90.4833,22.81,11111222 
WAVCIS,ioos:station:WAVCIS:CSI06:1,2008-11-06T16:00:00Z,28.8667,-90.4833,22.87,11111222 
WAVCIS,ioos:station:WAVCIS:CSI06:1,2008-11-06T17:00:00Z,28.8667,-90.4833,22.93,11111222 
WAVCIS,ioos:station:WAVCIS:CSI06:1,2008-11-06T19:00:00Z,28.8667,-90.4833,23.07,11111222 
WAVCIS,ioos:station:WAVCIS:CSI06:1,2008-11-06T20:00:00Z,28.8667,-90.4833,23.06,11111222 
WAVCIS,ioos:station:WAVCIS:CSI06:1,2008-11-06T21:00:00Z,28.8667,-90.4833,22.95,11111222 
WAVCIS,ioos:station:WAVCIS:CSI06:1,2008-11-06T22:00:00Z,28.8667,-90.4833,23.02,11111222 
WAVCIS,ioos:station:WAVCIS:CSI06:1,2008-11-06T23:00:00Z,28.8667,-90.4833,22.87,11111222 
WAVCIS,ioos:station:WAVCIS:CSI06:1,2008-11-07T00:00:00Z,28.8667,-90.4833,20.0,11111222 
WAVCIS,ioos:station:WAVCIS:CSI06:1,2008-11-07T01:00:00Z,28.8667,-90.4833,20.44,11111222 
WAVCIS,ioos:station:WAVCIS:CSI06:1,2008-11-07T02:00:00Z,28.8667,-90.4833,20.83,11111222 
WAVCIS,ioos:station:WAVCIS:CSI06:1,2008-11-07T03:00:00Z,28.8667,-90.4833,20.46,11111222 
WAVCIS,ioos:station:WAVCIS:CSI06:1,2008-11-07T04:00:00Z,28.8667,-90.4833,20.85,11111222 
WAVCIS,ioos:station:WAVCIS:CSI06:1,2008-11-07T05:00:00Z,28.8667,-90.4833,21.09,11111222 
WAVCIS,ioos:station:WAVCIS:CSI06:1,2008-11-07T06:00:00Z,28.8667,-90.4833,21.94,11111222 
WAVCIS,ioos:station:WAVCIS:CSI06:1,2008-11-07T07:00:00Z,28.8667,-90.4833,21.96,11111222 
WAVCIS,ioos:station:WAVCIS:CSI06:1,2008-11-07T08:00:00Z,28.8667,-90.4833,22.19,11111222 
WAVCIS,ioos:station:WAVCIS:CSI06:1,2008-11-07T09:00:00Z,28.8667,-90.4833,22.06,11111222 
WAVCIS,ioos:station:WAVCIS:CSI06:1,2008-11-07T10:00:00Z,28.8667,-90.4833,22.42,11111222 
WAVCIS,ioos:station:WAVCIS:CSI06:1,2008-11-07T11:00:00Z,28.8667,-90.4833,22.24,11111222 
WAVCIS,ioos:station:WAVCIS:CSI06:1,2008-11-07T12:00:00Z,28.8667,-90.4833,22.2,11111222 
WAVCIS,ioos:station:WAVCIS:CSI06:1,2008-11-07T13:00:00Z,28.8667,-90.4833,22.16,11111222 
WAVCIS,ioos:station:WAVCIS:CSI06:1,2008-11-07T14:00:00Z,28.8667,-90.4833,22.51,11111222 
WAVCIS,ioos:station:WAVCIS:CSI06:1,2008-11-07T15:00:00Z,28.8667,-90.4833,21.84,11111222 
WAVCIS,ioos:station:WAVCIS:CSI06:1,2008-11-07T16:00:00Z,28.8667,-90.4833,22.69,11111222 
WAVCIS,ioos:station:WAVCIS:CSI06:1,2008-11-07T17:00:00Z,28.8667,-90.4833,20.4,11111222 
WAVCIS,ioos:station:WAVCIS:CSI06:1,2008-11-07T18:00:00Z,28.8667,-90.4833,19.36,11111222 
WAVCIS,ioos:station:WAVCIS:CSI06:1,2008-11-07T19:00:00Z,28.8667,-90.4833,18.47,11111222 
WAVCIS,ioos:station:WAVCIS:CSI06:1,2008-11-07T20:00:00Z,28.8667,-90.4833,18.54,11111222 
WAVCIS,ioos:station:WAVCIS:CSI06:1,2008-11-07T21:00:00Z,28.8667,-90.4833,19.16,11111222 
WAVCIS,ioos:station:WAVCIS:CSI06:1,2008-11-07T22:00:00Z,28.8667,-90.4833,20.11,11111222 
WAVCIS,ioos:station:WAVCIS:CSI06:1,2008-11-07T23:00:00Z,28.8667,-90.4833,20.44,11111222 
WAVCIS,ioos:station:WAVCIS:CSI06:1,2008-11-08T00:00:00Z,28.8667,-90.4833,20.37,11111222 
WAVCIS,ioos:station:WAVCIS:CSI06:1,2008-11-08T01:00:00Z,28.8667,-90.4833,19.77,11111222 
WAVCIS,ioos:station:WAVCIS:CSI06:1,2008-11-08T02:00:00Z,28.8667,-90.4833,19.22,11111222 
WAVCIS,ioos:station:WAVCIS:CSI06:1,2008-11-08T03:00:00Z,28.8667,-90.4833,18.9,11111222 
WAVCIS,ioos:station:WAVCIS:CSI06:1,2008-11-08T04:00:00Z,28.8667,-90.4833,18.7,11111222 
WAVCIS,ioos:station:WAVCIS:CSI06:1,2008-11-08T05:00:00Z,28.8667,-90.4833,18.65,11111222 
WAVCIS,ioos:station:WAVCIS:CSI06:1,2008-11-08T06:00:00Z,28.8667,-90.4833,18.53,11111222 
WAVCIS,ioos:station:WAVCIS:CSI06:1,2008-11-08T07:00:00Z,28.8667,-90.4833,18.41,11111222 
WAVCIS,ioos:station:WAVCIS:CSI06:1,2008-11-08T09:00:00Z,28.8667,-90.4833,18.19,11111222 
WAVCIS,ioos:station:WAVCIS:CSI06:1,2008-11-08T10:00:00Z,28.8667,-90.4833,18.08,11111222 
WAVCIS,ioos:station:WAVCIS:CSI06:1,2008-11-08T11:00:00Z,28.8667,-90.4833,18.08,11111222 
WAVCIS,ioos:station:WAVCIS:CSI06:1,2008-11-08T12:00:00Z,28.8667,-90.4833,17.78,11111222 
WAVCIS,ioos:station:WAVCIS:CSI06:1,2008-11-08T13:00:00Z,28.8667,-90.4833,17.92,11111222 
WAVCIS,ioos:station:WAVCIS:CSI06:1,2008-11-08T14:00:00Z,28.8667,-90.4833,18.32,11111222 
WAVCIS,ioos:station:WAVCIS:CSI06:1,2008-11-08T15:00:00Z,28.8667,-90.4833,18.53,11111222 
WAVCIS,ioos:station:WAVCIS:CSI06:1,2008-11-08T16:00:00Z,28.8667,-90.4833,18.21,11111222 
WAVCIS,ioos:station:WAVCIS:CSI06:1,2008-11-08T17:00:00Z,28.8667,-90.4833,18.42,11111222 
WAVCIS,ioos:station:WAVCIS:CSI06:1,2008-11-08T18:00:00Z,28.8667,-90.4833,18.51,11111222 
WAVCIS,ioos:station:WAVCIS:CSI06:1,2008-11-08T19:00:00Z,28.8667,-90.4833,18.84,11111222 
WAVCIS,ioos:station:WAVCIS:CSI06:1,2008-11-08T20:00:00Z,28.8667,-90.4833,19.26,11111222 
WAVCIS,ioos:station:WAVCIS:CSI06:1,2008-11-08T21:00:00Z,28.8667,-90.4833,19.33,11111222 
WAVCIS,ioos:station:WAVCIS:CSI06:1,2008-11-08T22:00:00Z,28.8667,-90.4833,19.27,11111222 
WAVCIS,ioos:station:WAVCIS:CSI06:1,2008-11-08T23:00:00Z,28.8667,-90.4833,19.48,11111222 
WAVCIS,ioos:station:WAVCIS:CSI06:1,2008-11-09T00:00:00Z,28.8667,-90.4833,19.54,11111222 
WAVCIS,ioos:station:WAVCIS:CSI06:1,2008-11-09T01:00:00Z,28.8667,-90.4833,19.63,11111222 
WAVCIS,ioos:station:WAVCIS:CSI06:1,2008-11-09T02:00:00Z,28.8667,-90.4833,19.78,11111222 
WAVCIS,ioos:station:WAVCIS:CSI06:1,2008-11-09T03:00:00Z,28.8667,-90.4833,19.95,11111222 
WAVCIS,ioos:station:WAVCIS:CSI06:1,2008-11-09T04:00:00Z,28.8667,-90.4833,19.97,11111222 
WAVCIS,ioos:station:WAVCIS:CSI06:1,2008-11-09T05:00:00Z,28.8667,-90.4833,19.93,11111222 
WAVCIS,ioos:station:WAVCIS:CSI06:1,2008-11-09T06:00:00Z,28.8667,-90.4833,19.96,11111222 
WAVCIS,ioos:station:WAVCIS:CSI06:1,2008-11-09T07:00:00Z,28.8667,-90.4833,20.06,11111222 
WAVCIS,ioos:station:WAVCIS:CSI06:1,2008-11-09T08:00:00Z,28.8667,-90.4833,19.77,11111222 
WAVCIS,ioos:station:WAVCIS:CSI06:1,2008-11-09T09:00:00Z,28.8667,-90.4833,18.71,11111222 
WAVCIS,ioos:station:WAVCIS:CSI06:1,2008-11-09T10:00:00Z,28.8667,-90.4833,18.21,11111222 
WAVCIS,ioos:station:WAVCIS:CSI06:1,2008-11-09T11:00:00Z,28.8667,-90.4833,17.87,11111222 
WAVCIS,ioos:station:WAVCIS:CSI06:1,2008-11-09T12:00:00Z,28.8667,-90.4833,18.07,11111222 
WAVCIS,ioos:station:WAVCIS:CSI06:1,2008-11-09T13:00:00Z,28.8667,-90.4833,17.76,11111222 
WAVCIS,ioos:station:WAVCIS:CSI06:1,2008-11-09T15:00:00Z,28.8667,-90.4833,18.64,11111222 
WAVCIS,ioos:station:WAVCIS:CSI06:1,2008-11-09T16:00:00Z,28.8667,-90.4833,18.24,11111222 
WAVCIS,ioos:station:WAVCIS:CSI06:1,2008-11-09T17:00:00Z,28.8667,-90.4833,18.02,11111222 
WAVCIS,ioos:station:WAVCIS:CSI06:1,2008-11-09T18:00:00Z,28.8667,-90.4833,18.8,11111222 
WAVCIS,ioos:station:WAVCIS:CSI06:1,2008-11-09T19:00:00Z,28.8667,-90.4833,18.92,11111222 
WAVCIS,ioos:station:WAVCIS:CSI06:1,2008-11-09T20:00:00Z,28.8667,-90.4833,18.98,11111222 
WAVCIS,ioos:station:WAVCIS:CSI06:1,2008-11-09T21:00:00Z,28.8667,-90.4833,18.94,11111222 
WAVCIS,ioos:station:WAVCIS:CSI06:1,2008-11-09T22:00:00Z,28.8667,-90.4833,19.52,11111222 
WAVCIS,ioos:station:WAVCIS:CSI06:1,2008-11-09T23:00:00Z,28.8667,-90.4833,18.85,11111222 
WAVCIS,ioos:station:WAVCIS:CSI06:1,2008-11-10T00:00:00Z,28.8667,-90.4833,17.94,11111222 
WAVCIS,ioos:station:WAVCIS:CSI06:1,2008-11-10T01:00:00Z,28.8667,-90.4833,17.92,11111222 
WAVCIS,ioos:station:WAVCIS:CSI06:1,2008-11-10T02:00:00Z,28.8667,-90.4833,18.05,11111222 
WAVCIS,ioos:station:WAVCIS:CSI06:1,2008-11-10T04:00:00Z,28.8667,-90.4833,18.57,11111222 
WAVCIS,ioos:station:WAVCIS:CSI06:1,2008-11-10T05:00:00Z,28.8667,-90.4833,18.91,11111222 
WAVCIS,ioos:station:WAVCIS:CSI06:1,2008-11-10T06:00:00Z,28.8667,-90.4833,18.77,11111222 
WAVCIS,ioos:station:WAVCIS:CSI06:1,2008-11-10T07:00:00Z,28.8667,-90.4833,18.63,11111222 
WAVCIS,ioos:station:WAVCIS:CSI06:1,2008-11-10T08:00:00Z,28.8667,-90.4833,18.56,11111222 
WAVCIS,ioos:station:WAVCIS:CSI06:1,2008-11-10T09:00:00Z,28.8667,-90.4833,18.47,11111222 
WAVCIS,ioos:station:WAVCIS:CSI06:1,2008-11-10T10:00:00Z,28.8667,-90.4833,18.15,11111222 
WAVCIS,ioos:station:WAVCIS:CSI06:1,2008-11-10T11:00:00Z,28.8667,-90.4833,17.81,11111222 
WAVCIS,ioos:station:WAVCIS:CSI06:1,2008-11-10T12:00:00Z,28.8667,-90.4833,17.75,11111222 
WAVCIS,ioos:station:WAVCIS:CSI06:1,2008-11-10T13:00:00Z,28.8667,-90.4833,17.81,11111222 
WAVCIS,ioos:station:WAVCIS:CSI06:1,2008-11-10T14:00:00Z,28.8667,-90.4833,17.86,11111222 
WAVCIS,ioos:station:WAVCIS:CSI06:1,2008-11-10T15:00:00Z,28.8667,-90.4833,18.2,11111222 
WAVCIS,ioos:station:WAVCIS:CSI06:1,2008-11-10T16:00:00Z,28.8667,-90.4833,17.98,11111222 
WAVCIS,ioos:station:WAVCIS:CSI06:1,2008-11-10T17:00:00Z,28.8667,-90.4833,17.99,11111222 
WAVCIS,ioos:station:WAVCIS:CSI06:1,2008-11-10T18:00:00Z,28.8667,-90.4833,18.29,11111222 
WAVCIS,ioos:station:WAVCIS:CSI06:1,2008-11-10T19:00:00Z,28.8667,-90.4833,18.62,11111222 
WAVCIS,ioos:station:WAVCIS:CSI06:1,2008-11-10T20:00:00Z,28.8667,-90.4833,19.12,11111222 
WAVCIS,ioos:station:WAVCIS:CSI06:1,2008-11-10T21:00:00Z,28.8667,-90.4833,19.22,11111222 
WAVCIS,ioos:station:WAVCIS:CSI06:1,2008-11-10T22:00:00Z,28.8667,-90.4833,19.16,11111222 
WAVCIS,ioos:station:WAVCIS:CSI06:1,2008-11-10T23:00:00Z,28.8667,-90.4833,19.12,11111222 
WAVCIS,ioos:station:WAVCIS:CSI06:1,2008-11-11T00:00:00Z,28.8667,-90.4833,19.07,11111222 
WAVCIS,ioos:station:WAVCIS:CSI06:1,2008-11-11T01:00:00Z,28.8667,-90.4833,19.09,11111222 
WAVCIS,ioos:station:WAVCIS:CSI06:1,2008-11-11T02:00:00Z,28.8667,-90.4833,19.46,11111222 
WAVCIS,ioos:station:WAVCIS:CSI06:1,2008-11-11T03:00:00Z,28.8667,-90.4833,19.6,11111222 
WAVCIS,ioos:station:WAVCIS:CSI06:1,2008-11-11T04:00:00Z,28.8667,-90.4833,19.77,11111222 
WAVCIS,ioos:station:WAVCIS:CSI06:1,2008-11-11T05:00:00Z,28.8667,-90.4833,19.92,11111222 
WAVCIS,ioos:station:WAVCIS:CSI06:1,2008-11-11T06:00:00Z,28.8667,-90.4833,20.06,11111222 
WAVCIS,ioos:station:WAVCIS:CSI06:1,2008-11-11T07:00:00Z,28.8667,-90.4833,20.31,11111222 
WAVCIS,ioos:station:WAVCIS:CSI06:1,2008-11-11T08:00:00Z,28.8667,-90.4833,20.48,11111222 
WAVCIS,ioos:station:WAVCIS:CSI06:1,2008-11-11T09:00:00Z,28.8667,-90.4833,20.58,11111222 
WAVCIS,ioos:station:WAVCIS:CSI06:1,2008-11-11T10:00:00Z,28.8667,-90.4833,20.77,11111222 
WAVCIS,ioos:station:WAVCIS:CSI06:1,2008-11-11T11:00:00Z,28.8667,-90.4833,20.89,11111222 
WAVCIS,ioos:station:WAVCIS:CSI06:1,2008-11-11T12:00:00Z,28.8667,-90.4833,20.94,11111222 
WAVCIS,ioos:station:WAVCIS:CSI06:1,2008-11-11T13:00:00Z,28.8667,-90.4833,21.11,11111222 
WAVCIS,ioos:station:WAVCIS:CSI06:1,2008-11-11T14:00:00Z,28.8667,-90.4833,21.31,11111222 
WAVCIS,ioos:station:WAVCIS:CSI06:1,2008-11-11T15:00:00Z,28.8667,-90.4833,21.43,11111222 
WAVCIS,ioos:station:WAVCIS:CSI06:1,2008-11-11T16:00:00Z,28.8667,-90.4833,21.6,11111222 
WAVCIS,ioos:station:WAVCIS:CSI06:1,2008-11-11T17:00:00Z,28.8667,-90.4833,21.63,11111222 
WAVCIS,ioos:station:WAVCIS:CSI06:1,2008-11-11T18:00:00Z,28.8667,-90.4833,21.62,11111222 
WAVCIS,ioos:station:WAVCIS:CSI06:1,2008-11-11T19:00:00Z,28.8667,-90.4833,21.64,11111222 
WAVCIS,ioos:station:WAVCIS:CSI06:1,2008-11-11T20:00:00Z,28.8667,-90.4833,21.67,11111222 
WAVCIS,ioos:station:WAVCIS:CSI06:1,2008-11-11T21:00:00Z,28.8667,-90.4833,21.72,11111222 
WAVCIS,ioos:station:WAVCIS:CSI06:1,2008-11-11T22:00:00Z,28.8667,-90.4833,21.58,11111222 
WAVCIS,ioos:station:WAVCIS:CSI06:1,2008-11-11T23:00:00Z,28.8667,-90.4833,21.62,11111222 
WAVCIS,ioos:station:WAVCIS:CSI06:1,2008-11-12T00:00:00Z,28.8667,-90.4833,21.69,11111222 
WAVCIS,ioos:station:WAVCIS:CSI06:1,2008-11-12T01:00:00Z,28.8667,-90.4833,21.76,11111222 
WAVCIS,ioos:station:WAVCIS:CSI06:1,2008-11-12T02:00:00Z,28.8667,-90.4833,21.82,11111222 
WAVCIS,ioos:station:WAVCIS:CSI06:1,2008-11-12T03:00:00Z,28.8667,-90.4833,21.88,11111222 
WAVCIS,ioos:station:WAVCIS:CSI06:1,2008-11-12T04:00:00Z,28.8667,-90.4833,22.01,11111222 
WAVCIS,ioos:station:WAVCIS:CSI06:1,2008-11-12T06:00:00Z,28.8667,-90.4833,21.87,11111222 
WAVCIS,ioos:station:WAVCIS:CSI06:1,2008-11-12T07:00:00Z,28.8667,-90.4833,21.84,11111222 
WAVCIS,ioos:station:WAVCIS:CSI06:1,2008-11-12T08:00:00Z,28.8667,-90.4833,22.01,11111222 
WAVCIS,ioos:station:WAVCIS:CSI06:1,2008-11-12T09:00:00Z,28.8667,-90.4833,22.03,11111222 
WAVCIS,ioos:station:WAVCIS:CSI06:1,2008-11-12T10:00:00Z,28.8667,-90.4833,22.02,11111222 
WAVCIS,ioos:station:WAVCIS:CSI06:1,2008-11-12T11:00:00Z,28.8667,-90.4833,22.21,11111222 
WAVCIS,ioos:station:WAVCIS:CSI06:1,2008-11-12T12:00:00Z,28.8667,-90.4833,22.11,11111222 
WAVCIS,ioos:station:WAVCIS:CSI06:1,2008-11-12T13:00:00Z,28.8667,-90.4833,22.17,11111222 
WAVCIS,ioos:station:WAVCIS:CSI06:1,2008-11-12T14:00:00Z,28.8667,-90.4833,22.41,11111222 